• En España
  • Lista de países
  • Para 7 días
  • Temperatura del agua
  • Mapa Satelital
  • El tiempo en el mapa
  • Informadores
  • user-avatar
    Iniciar sesión

    Tiempo cada hora Santo Tirso

    Hoy, 22 Noviembre, Miércoles

    Tiempo Temperatura Precipitaciones Viento Presión Humedad
    00:00 +12°C° 0 mm 4 mps 755 mmHg 55%
    01:00 +12°C° 0 mm 4 mps 754 mmHg 56%
    02:00 +12°C° 0 mm 4 mps 754 mmHg 57%
    03:00 +11°C° 0 mm 4 mps 753 mmHg 58%
    04:00 +11°C° 0 mm 4 mps 753 mmHg 60%
    05:00 +10°C° 0 mm 5 mps 752 mmHg 61%
    06:00 +12°C° 0 mm 5 mps 752 mmHg 60%
    07:00 +13°C° 0 mm 5 mps 752 mmHg 58%
    08:00 +14°C° 0 mm 5 mps 752 mmHg 57%
    09:00 +15°C° 0,1 mm 6 mps 752 mmHg 54%
    10:00 +16°C° 0,1 mm 6 mps 751 mmHg 52%
    11:00 +18°C° 0,1 mm 7 mps 751 mmHg 50%
    12:00 +17°C° 0,8 mm 6 mps 751 mmHg 55%
    13:00 +16°C° 0,8 mm 6 mps 750 mmHg 60%
    14:00 +16°C° 0,8 mm 6 mps 750 mmHg 66%
    15:00 +15°C° 0,3 mm 6 mps 750 mmHg 69%
    16:00 +15°C° 0,3 mm 6 mps 750 mmHg 71%
    17:00 +15°C° 0,3 mm 6 mps 750 mmHg 74%
    18:00 +15°C° 0,1 mm 6 mps 750 mmHg 75%
    19:00 +15°C° 0,1 mm 6 mps 750 mmHg 76%
    20:00 +15°C° 0,1 mm 6 mps 750 mmHg 77%
    21:00 +15°C° 0,2 mm 5 mps 750 mmHg 79%
    22:00 +15°C° 0,2 mm 5 mps 750 mmHg 80%
    23:00 +15°C° 0,2 mm 4 mps 750 mmHg 82%

    Mañana, 23 Noviembre, Jueves

    Tiempo Temperatura Precipitaciones Viento Presión Humedad
    00:00 +15°C° 0,2 mm 4 mps 750 mmHg 85%
    01:00 +15°C° 0,2 mm 4 mps 751 mmHg 89%
    02:00 +16°C° 0,2 mm 3 mps 751 mmHg 93%
    03:00 +16°C° 0,3 mm 3 mps 751 mmHg 93%
    04:00 +16°C° 0,3 mm 3 mps 751 mmHg 93%
    05:00 +16°C° 0,3 mm 3 mps 751 mmHg 93%
    06:00 +16°C° 0,3 mm 3 mps 752 mmHg 92%
    07:00 +15°C° 0,3 mm 4 mps 752 mmHg 91%
    08:00 +17°C° 0,3 mm 4 mps 752 mmHg 90%
    09:00 +17°C° 0,2 mm 4 mps 752 mmHg 85%
    10:00 +18°C° 0,2 mm 4 mps 753 mmHg 81%
    11:00 +18°C° 0,2 mm 4 mps 753 mmHg 77%
    12:00 +17°C° 0,3 mm 5 mps 753 mmHg 75%
    13:00 +16°C° 0,3 mm 6 mps 752 mmHg 74%
    14:00 +16°C° 0,3 mm 6 mps 752 mmHg 72%
    15:00 +15°C° 0,7 mm 6 mps 752 mmHg 75%
    16:00 +15°C° 0,7 mm 6 mps 752 mmHg 77%
    17:00 +14°C° 0,7 mm 6 mps 752 mmHg 80%
    18:00 +15°C° 0,8 mm 5 mps 752 mmHg 82%
    19:00 +15°C° 0,8 mm 5 mps 752 mmHg 85%
    20:00 +15°C° 0,8 mm 5 mps 752 mmHg 87%
    21:00 +15°C° 1,1 mm 5 mps 752 mmHg 89%
    22:00 +15°C° 1,1 mm 5 mps 753 mmHg 91%
    23:00 +17°C° 1,1 mm 4 mps 753 mmHg 92%

    Pasado mañana, 24 Noviembre, Viernes

    Tiempo Temperatura Precipitaciones Viento Presión Humedad
    00:00 +15°C° 0,3 mm 4 mps 753 mmHg 92%
    01:00 +15°C° 0,3 mm 4 mps 753 mmHg 92%
    02:00 +15°C° 0,3 mm 4 mps 753 mmHg 93%
    03:00 +15°C° 0,2 mm 4 mps 753 mmHg 93%
    04:00 +15°C° 0,2 mm 4 mps 753 mmHg 94%
    05:00 +14°C° 0,2 mm 4 mps 753 mmHg 94%
    06:00 +15°C° 0,2 mm 4 mps 753 mmHg 93%
    07:00 +15°C° 0,2 mm 4 mps 753 mmHg 91%
    08:00 +15°C° 0,2 mm 4 mps 754 mmHg 90%
    09:00 +16°C° 0,4 mm 5 mps 754 mmHg 88%
    10:00 +16°C° 0,4 mm 5 mps 753 mmHg 87%
    11:00 +17°C° 0,4 mm 6 mps 753 mmHg 85%
    12:00 +17°C° 1,2 mm 6 mps 753 mmHg 84%
    13:00 +17°C° 1,2 mm 6 mps 753 mmHg 84%
    14:00 +17°C° 1,2 mm 6 mps 753 mmHg 84%
    15:00 +16°C° 2,4 mm 5 mps 753 mmHg 87%
    16:00 +17°C° 2,4 mm 4 mps 753 mmHg 90%
    17:00 +17°C° 2,4 mm 4 mps 754 mmHg 93%
    18:00 +15°C° 2,1 mm 4 mps 754 mmHg 93%
    19:00 +15°C° 2,1 mm 4 mps 755 mmHg 93%
    20:00 +15°C° 2,1 mm 4 mps 756 mmHg 94%
    21:00 +14°C° 0,4 mm 4 mps 756 mmHg 93%
    22:00 +14°C° 0,4 mm 3 mps 757 mmHg 92%
    23:00 +13°C° 0,4 mm 3 mps 757 mmHg 92%

    25 Noviembre, Sábado

    Tiempo Temperatura Precipitaciones Viento Presión Humedad
    00:00 +13°C° 0 mm 3 mps 757 mmHg 92%
    01:00 +12°C° 0 mm 3 mps 758 mmHg 92%
    02:00 +12°C° 0 mm 3 mps 758 mmHg 92%
    03:00 +11°C° 0 mm 3 mps 758 mmHg 91%
    04:00 +11°C° 0 mm 3 mps 758 mmHg 91%
    05:00 +10°C° 0 mm 4 mps 758 mmHg 90%
    06:00 +10°C° 0 mm 4 mps 759 mmHg 88%
    07:00 +11°C° 0 mm 4 mps 759 mmHg 85%
    08:00 +11°C° 0 mm 4 mps 760 mmHg 83%
    09:00 +12°C° 0 mm 4 mps 760 mmHg 76%
    10:00 +13°C° 0 mm 4 mps 759 mmHg 69%
    11:00 +14°C° 0 mm 4 mps 759 mmHg 62%
    12:00 +15°C° 0 mm 4 mps 759 mmHg 59%
    13:00 +16°C° 0 mm 3 mps 759 mmHg 57%
    14:00 +17°C° 0 mm 3 mps 758 mmHg 55%
    15:00 +14°C° 0 mm 3 mps 758 mmHg 59%
    16:00 +13°C° 0 mm 3 mps 759 mmHg 64%
    17:00 +12°C° 0 mm 3 mps 759 mmHg 68%
    18:00 +12°C° 0 mm 3 mps 759 mmHg 69%
    19:00 +11°C° 0 mm 3 mps 759 mmHg 70%
    20:00 +11°C° 0 mm 3 mps 760 mmHg 71%
    21:00 +11°C° 0 mm 3 mps 760 mmHg 71%
    22:00 +11°C° 0 mm 3 mps 759 mmHg 71%
    23:00 +10°C° 0 mm 3 mps 759 mmHg 71%

    26 Noviembre, Domingo

    Tiempo Temperatura Precipitaciones Viento Presión Humedad
    00:00 +10°C° 0 mm 3 mps 759 mmHg 72%
    01:00 +10°C° 0 mm 3 mps 759 mmHg 74%
    02:00 +10°C° 0 mm 3 mps 759 mmHg 75%
    03:00 +10°C° 0 mm 2 mps 759 mmHg 75%
    04:00 +10°C° 0 mm 2 mps 759 mmHg 75%
    05:00 +10°C° 0 mm 2 mps 760 mmHg 75%
    06:00 +10°C° 0 mm 2 mps 760 mmHg 73%
    07:00 +10°C° 0 mm 2 mps 760 mmHg 72%
    08:00 +12°C° 0 mm 2 mps 761 mmHg 70%
    09:00 +13°C° 0 mm 2 mps 761 mmHg 66%
    10:00 +14°C° 0 mm 2 mps 761 mmHg 62%
    11:00 +15°C° 0 mm 2 mps 761 mmHg 57%
    12:00 +16°C° 0 mm 2 mps 761 mmHg 57%
    13:00 +16°C° 0 mm 2 mps 760 mmHg 57%
    14:00 +16°C° 0 mm 1 mps 760 mmHg 57%
    15:00 +15°C° 0 mm 1 mps 760 mmHg 62%
    16:00 +14°C° 0 mm 2 mps 761 mmHg 67%
    17:00 +13°C° 0 mm 2 mps 761 mmHg 72%
    18:00 +12°C° 0 mm 2 mps 761 mmHg 72%
    19:00 +12°C° 0 mm 2 mps 762 mmHg 72%
    20:00 +10°C° 0 mm 2 mps 762 mmHg 73%
    21:00 +10°C° 0 mm 2 mps 762 mmHg 72%
    22:00 +10°C° 0 mm 3 mps 762 mmHg 71%
    23:00 +10°C° 0 mm 3 mps 762 mmHg 70%

    27 Noviembre, Lunes

    Tiempo Temperatura Precipitaciones Viento Presión Humedad
    00:00 +9°C° 0 mm 3 mps 762 mmHg 70%
    01:00 +9°C° 0 mm 3 mps 762 mmHg 70%
    02:00 +9°C° 0 mm 2 mps 761 mmHg 70%
    03:00 +9°C° 0 mm 2 mps 761 mmHg 70%
    04:00 +9°C° 0 mm 2 mps 761 mmHg 70%
    05:00 +9°C° 0 mm 2 mps 761 mmHg 69%
    06:00 +9°C° 0 mm 2 mps 761 mmHg 69%
    07:00 +10°C° 0 mm 2 mps 761 mmHg 68%
    08:00 +10°C° 0 mm 2 mps 761 mmHg 68%
    09:00 +12°C° 0,2 mm 2 mps 761 mmHg 70%
    10:00 +12°C° 0,2 mm 2 mps 761 mmHg 72%
    11:00 +12°C° 0,2 mm 3 mps 760 mmHg 74%
    12:00 +13°C° 0,1 mm 2 mps 759 mmHg 75%
    13:00 +14°C° 0,1 mm 2 mps 759 mmHg 76%
    14:00 +14°C° 0,1 mm 2 mps 758 mmHg 76%
    15:00 +14°C° 0,1 mm 2 mps 758 mmHg 79%
    16:00 +13°C° 0,1 mm 2 mps 757 mmHg 82%
    17:00 +13°C° 0,1 mm 2 mps 757 mmHg 84%
    18:00 +13°C° 0,4 mm 2 mps 757 mmHg 85%
    19:00 +13°C° 0,4 mm 2 mps 757 mmHg 86%
    20:00 +13°C° 0,4 mm 1 mps 756 mmHg 87%
    21:00 +13°C° 1,2 mm 1 mps 756 mmHg 88%
    22:00 +13°C° 1,2 mm 1 mps 755 mmHg 89%
    23:00 +12°C° 1,2 mm 2 mps 755 mmHg 91%
    Mostrar más